"Pseudo-MPEC" for P10Iofm

Created 2018 Jul 18 10:18:11 UT using Find_Orb

Click here for an explanation of pseudo-MPECs

 
 Astrometry: 
     P10Iofm  C2018 07 11WCAstrometry8h7$?F;KPZN*`N0K?`k-J):4;O6bm_\PY!wtLM.TF51
     P10Iofm  C2018 07 112o\Bt(ec,H#t,04I$M#:#6;1B(?P:h36bir'R$*/xHpc\?AcB[fYF51
     P10Iofm  C2018 07 11PADL#=#q`j-3%*?]4(56xxL=?5:TUM+vKWyB4J($W+76i0sW9cm7F51
     P10Iofm  C2018 07 11a?/[.#5cPt:URmwfEOe6@.Gme`V2wr+,S9/BV9=pnodF5\LZ1kqQF51
     P10Iofm |C2018 07 12yrEX!PUM[t%#*s@!Aredacted;iegXGm92^dd7\cUn_#l@?LnyOy807
     P10Iofm |C2018 07 12roTm8?[q@Nd,g(J$342,MiRn/$bTo4#I'pBbA7+IXgs6+a$qmR`E807
     P10Iofm KC2018 07 12I#eW2y5['_XCt41ClR=)7X-bK_J_LMV7_BkNWL35o90*$SPVJ3G(474
     P10Iofm KC2018 07 12A/-Z1Wt7_*OxLtL)F9?;,Oy0\P@-=g5^PCsaTGymQ(kWq`0Y=bqE474
     P10Iofm KC2018 07 12!RAAWq*3MQ2@\nf9p]SrngidO:Et;E4gk8@uKG7h+T/Uk'_)q$Y1474
     P10Iofm KC2018 07 12I-'H4;i6`\05-X;EW*.@`y\g9f8qy$t,see+B@f0`Huu/-jT-!9;474
     P10Iofm KC2018 07 18Ayn#f-CYXB]ROhuIh;4(c/#rG'#H@rCsfF9NDr,fU_;w4??OSGlb474
     P10Iofm KC2018 07 18$XKy[MsSpl?q`G;XT'hmwe[+0oRV11ti\tJdm#Z:v+DFXR(FE%fZ474
     P10Iofm KC2018 07 18AqDj#!4NjKHn5pqIdGUdk!vw)wvbcV]4M7(L)LQ+@f!kie9D)^6]474
     P10Iofm KC2018 07 18#2F@i]TC1kxmq'tH2:hh`X-SV7kV=':t:::]Qn_X01_*YLxNEOCP474

Station data:
(474) Mount John Observatory, Lake Tekapo  (S43.987388 E170.464960)  New
   Zealand.  Observers A. C. Gilmore, P. M. Kilmartin. Measurer P. M.
   Kilmartin. 1.0-m f/7.7 reflector + CCD.
(807) Cerro Tololo Observatory, La Serena  (S30.169136 W70.805900)  Chile.
   1.5-m Ritchey-Chrétien.
(F51) Pan-STARRS 1, Haleakala  (N20.707235 W156.255910)  US/Hawaii.
   Observers N. Primak, A. Schultz, S. Watters, J. Thiel, T. Goggia. Measurer
   PS1 Science Consortium. 1.8-m Ritchey-Chrétien + CCD.

Orbital elements:  P10Iofm
   Perihelion 2019 Apr 24.297673 +/- 4.78 TT =  7:08:39 (JD 2458597.797673)
Epoch 2018 Jul 18.0 TT = JDT 2458317.5   Earth MOID: 0.5675   Ma: 0.0429
M 264.35205 +/- 2.3                 (J2000 ecliptic)          AutoNEOCP
n   0.34123704 +/- 0.00292          Peri.  123.96098 +/- 1.4
a   2.02814314 +/- 0.0116           Node   264.33125 +/- 0.07
e   0.2854368 +/- 0.00363           Incl.   30.07418 +/- 0.24
P   2.89                   H 18.0   G  0.15   U  8.8  
q 1.44923632 +/- 0.00473    Q 2.60704996 +/- 0.0215
From 14 observations 2018 July 11-18; mean residual 0".19
Residuals in arcseconds: 
180711 F51  .07+  .01+    180712 807  .04+  .59-    180718 474  .28-  .07+    
180711 F51  .17-  .06+    180712 474  .16-  .13+    180718 474  .02+  .00     
180711 F51  .03+  .07+    180712 474  .12+  .17+    180718 474  .19+  .16-    
180711 F51  .04-  .12+    180712 474  .16-  .32+    180718 474  .07+  .07+    
180712 807  .32+  .19-    180712 474  .16-  .17+    

Ephemerides (geocentric):
Date (UTC) HH   RA              Dec         delta   r     elong  mag " sig PA
---- -- -- --  -------------   -----------  ------ ------ -----  --- ---- ---
2018 07 18 10  15 55 35.083   -21 36 06.55  1.4817 2.2337 125.8 21.6  .03  78
2018 07 18 11  15 55 34.558   -21 35 32.61  1.4820 2.2336 125.7 21.6  .05  75
2018 07 18 12  15 55 34.038   -21 34 58.69  1.4824 2.2334 125.7 21.7  .06  74
2018 07 18 13  15 55 33.521   -21 34 24.79  1.4827 2.2333 125.7 21.7  .07  73
2018 07 18 14  15 55 33.008   -21 33 50.91  1.4830 2.2332 125.6 21.7  .09  72
2018 07 18 15  15 55 32.498   -21 33 17.06  1.4833 2.2331 125.6 21.7  .10  72
2018 07 18 16  15 55 31.993   -21 32 43.24  1.4836 2.2330 125.5 21.7  .12  71
2018 07 18 17  15 55 31.492   -21 32 09.44  1.4840 2.2328 125.5 21.7  .13  71
2018 07 18 18  15 55 30.994   -21 31 35.66  1.4843 2.2327 125.4 21.7  .15  71
2018 07 18 19  15 55 30.501   -21 31 01.91  1.4846 2.2326 125.4 21.7  .16  71
2018 07 18 20  15 55 30.011   -21 30 28.18  1.4849 2.2325 125.3 21.7  .18  71
2018 07 18 21  15 55 29.525   -21 29 54.48  1.4852 2.2323 125.3 21.7  .19  70
2018 07 18 22  15 55 29.043   -21 29 20.80  1.4856 2.2322 125.3 21.7  .21  70
2018 07 18 23  15 55 28.565   -21 28 47.15  1.4859 2.2321 125.2 21.7  .22  70
2018 07 19 00  15 55 28.091   -21 28 13.52  1.4862 2.2320 125.2 21.7  .24  70
2018 07 19 01  15 55 27.621   -21 27 39.91  1.4865 2.2319 125.1 21.7  .25  70
2018 07 19 02  15 55 27.154   -21 27 06.33  1.4868 2.2317 125.1 21.7  .27  70
2018 07 19 03  15 55 26.692   -21 26 32.77  1.4872 2.2316 125.0 21.7  .29  70
2018 07 19 04  15 55 26.233   -21 25 59.24  1.4875 2.2315 125.0 21.7  .30  70
2018 07 19 05  15 55 25.778   -21 25 25.73  1.4878 2.2314 125.0 21.7  .32  70
2018 07 19 06  15 55 25.327   -21 24 52.25  1.4881 2.2312 124.9 21.7  .34  70
2018 07 19 07  15 55 24.880   -21 24 18.79  1.4885 2.2311 124.9 21.7  .35  70
2018 07 19 08  15 55 24.437   -21 23 45.36  1.4888 2.2310 124.8 21.7  .37  70
2018 07 19 09  15 55 23.998   -21 23 11.95  1.4891 2.2309 124.8 21.7  .39  70
2018 07 19 10  15 55 23.562   -21 22 38.56  1.4894 2.2308 124.7 21.7  .40  70
2018 07 19 11  15 55 23.131   -21 22 05.20  1.4898 2.2306 124.7 21.7  .42  70
2018 07 19 12  15 55 22.703   -21 21 31.87  1.4901 2.2305 124.7 21.7  .44  70
2018 07 19 13  15 55 22.279   -21 20 58.55  1.4904 2.2304 124.6 21.7  .46  70
2018 07 19 14  15 55 21.859   -21 20 25.27  1.4907 2.2303 124.6 21.7  .48  70
2018 07 19 15  15 55 21.443   -21 19 52.00  1.4911 2.2301 124.5 21.7  .50  70
2018 07 19 16  15 55 21.031   -21 19 18.77  1.4914 2.2300 124.5 21.7  .51  70
2018 07 19 17  15 55 20.622   -21 18 45.55  1.4917 2.2299 124.4 21.7  .53  70
2018 07 19 18  15 55 20.217   -21 18 12.36  1.4920 2.2298 124.4 21.7  .55  70
2018 07 19 19  15 55 19.817   -21 17 39.20  1.4924 2.2297 124.4 21.7  .57  70
2018 07 19 20  15 55 19.420   -21 17 06.06  1.4927 2.2295 124.3 21.7  .59  70
2018 07 19 21  15 55 19.027   -21 16 32.94  1.4930 2.2294 124.3 21.7  .61  70
2018 07 19 22  15 55 18.637   -21 15 59.85  1.4933 2.2293 124.2 21.7  .63  70
2018 07 19 23  15 55 18.252   -21 15 26.79  1.4937 2.2292 124.2 21.7  .65  70
2018 07 20 00  15 55 17.870   -21 14 53.74  1.4940 2.2290 124.1 21.7  .67  70
2018 07 20 01  15 55 17.493   -21 14 20.73  1.4943 2.2289 124.1 21.7  .69  70
2018 07 20 02  15 55 17.119   -21 13 47.73  1.4946 2.2288 124.1 21.7  .71  70
2018 07 20 03  15 55 16.749   -21 13 14.77  1.4950 2.2287 124.0 21.7  .73  70
2018 07 20 04  15 55 16.382   -21 12 41.82  1.4953 2.2286 124.0 21.7  .75  70
2018 07 20 05  15 55 16.020   -21 12 08.90  1.4956 2.2284 123.9 21.7  .77  70
2018 07 20 06  15 55 15.661   -21 11 36.01  1.4960 2.2283 123.9 21.7  .79  70
2018 07 20 07  15 55 15.307   -21 11 03.14  1.4963 2.2282 123.8 21.7  .81  70
2018 07 20 08  15 55 14.956   -21 10 30.29  1.4966 2.2281 123.8 21.7  .83  70
2018 07 20 09  15 55 14.609   -21 09 57.47  1.4969 2.2279 123.8 21.7  .86  70